Voltar ao catálogo

STARLINK-35765

AtivoComunicaçõesVLEO
NORAD 67041·PAYLOAD·🇺🇸 United States

Lançado Dec 11, 2025 de Cape Canaveral Space Force Station

Loading…

Próximas Passagens (próximas 24 horas)

TLE

AtualizadoSource: CelesTrak SupGP

Época: Sep 15, 2026, 02:29 UTC

1 67041C 25294M   26258.10395833 -.00022090  00000+0 -79990-3 0  2584
2 67041  43.0045  48.4177 0001944 269.5708 211.5769 15.27596252    18

Acompanhe STARLINK-35765 em tempo real com AllMySat

Download on the App Store